{"data":{"norad_id":62984,"intl_designator":"2025-031D","name":"STARLINK-11544 [DTC]","alt_names":[],"object_type":"PAYLOAD","status":"ACTIVE","operator":null,"country":"US","launch_date":"2025-02-11","launch_site_code":"AFETR","launch_vehicle":null,"mission":null,"orbit_class":"UNKNOWN","rcs_meters":null,"size_class":null,"mass_kg":null,"dimensions":null,"purposes":["comms"],"wikipedia_slug":null,"has_3d_model":false,"image_url":null,"decayed_at":null,"tle_current":{"epoch":"2026-09-21T00:16:14.268864Z","epoch_age_seconds":121028,"freshness":"FRESH","line1":"1 62984U 25031D   26264.01127626  .00118905  00000+0  91419-3 0  9995","line2":"2 62984  42.9964 263.9250 0000098 263.8919  96.1938 15.70911692 93433","mean_motion":15.70911692,"eccentricity":9.8e-6,"inclination_deg":42.9964,"raan_deg":263.925,"arg_perigee_deg":263.8919,"mean_anomaly_deg":96.1938,"bstar":0.00091419,"rev_number":9343,"period_min":91.66651488644,"perigee_km":356.22416282195,"apogee_km":356.35615759428,"semimajor_km":6734.4271602081,"source":"CELESTRAK","updated_at":"2026-09-22T09:00:49.716827Z"}}}